Date String (YYYY-MM-DD hh:mm:ss) UTC,Instrument flags,Ambient pressure (hPa),Sample flow (lpm),Bypass flow (lpm),Sample temperature (°C),Ambient temperature (°C),ASC tube jacket temperature (°C),LED temperature (°C),Box temperature (°C),Sample RH (%),Span deviation,Mass concentration (μg/m³),Mass concentration (μg/m³),Mass concentration (μg/m³)
DateTimeUTC,F1_M11,P_M11,Q1_M11,Q2_M11,T1_M11,T2_M11,T3_M11,T4_M11,T5_M11,U1_M11,ZSPAN_M11,X0_M11,X2_M11,X1_M11
2023-05-29 02:00:00,,0828.2,5.00,0.00,29.4,27.6,00.0,37.8,31.1,20.8,0000.0,0008.06,0003.71,0002.67
2023-05-29 02:01:00,,0828.2,5.00,0.00,29.5,27.7,00.0,37.8,31.2,21.0,0000.0,0008.62,0003.71,0002.68
2023-05-29 02:02:00,,0828.2,5.00,0.00,29.5,27.9,00.0,37.8,31.2,21.3,0000.0,0008.55,0003.67,0002.68
2023-05-29 02:03:00,,0828.2,5.00,0.00,29.5,28.0,00.0,37.8,31.2,21.1,0000.0,0008.71,0003.68,0002.68
2023-05-29 02:04:00,,0828.2,5.01,0.00,29.5,28.1,00.0,37.8,31.2,21.4,0000.0,0008.93,0003.70,0002.66
2023-05-29 02:05:00,,0828.3,4.99,0.00,29.6,28.2,00.0,37.8,31.3,21.3,0000.0,0009.27,0003.68,0002.65
2023-05-29 02:06:00,,0828.3,4.99,0.00,29.6,28.3,00.0,37.8,31.3,21.5,0000.0,0009.57,0003.67,0002.64
2023-05-29 02:07:00,,0828.2,5.00,0.00,29.6,28.3,00.0,37.9,31.3,21.4,0000.0,0009.59,0003.70,0002.67
2023-05-29 02:08:00,,0828.3,5.00,0.00,29.6,28.4,00.0,37.9,31.4,20.9,0000.0,0009.57,0003.74,0002.68
2023-05-29 02:09:00,,0828.3,5.00,0.00,29.7,28.5,00.0,37.9,31.4,21.0,0000.0,0009.63,0003.78,0002.69
2023-05-29 02:10:00,,0828.3,5.01,0.00,29.7,28.5,00.0,37.9,31.4,20.9,0000.0,0009.65,0003.75,0002.71
2023-05-29 02:11:00,,0828.3,5.00,0.00,29.7,28.1,00.0,37.9,31.4,21.0,0000.0,0009.43,0003.76,0002.72
2023-05-29 02:12:00,,0828.3,4.99,0.00,29.7,26.3,00.0,37.8,31.2,20.9,0000.0,0008.83,0003.75,0002.72
2023-05-29 02:13:00,,0828.2,5.01,0.00,29.6,25.6,00.0,37.8,31.1,21.3,0000.0,0008.70,0003.74,0002.72
2023-05-29 02:14:00,,0828.3,5.01,0.00,29.5,25.7,00.0,37.8,30.9,21.4,0000.0,0008.54,0003.72,0002.72
2023-05-29 02:15:00,,0828.3,5.00,0.00,29.5,26.0,00.0,37.8,30.9,21.6,0000.0,0008.39,0003.71,0002.73
2023-05-29 02:16:00,,0828.3,5.00,0.00,29.4,26.4,00.0,37.8,30.9,21.3,0000.0,0007.99,0003.70,0002.74
2023-05-29 02:17:00,,0828.4,4.99,0.00,29.4,26.7,00.0,37.8,31.0,21.3,0000.0,0007.74,0003.73,0002.73
2023-05-29 02:18:00,,0828.4,5.00,0.00,29.4,27.0,00.0,37.8,31.0,21.5,0000.0,0007.74,0003.74,0002.73
2023-05-29 02:19:00,,0828.4,5.00,0.00,29.4,27.2,00.0,37.8,31.1,21.8,0000.0,0007.88,0003.78,0002.75
2023-05-29 02:20:00,,0828.4,5.00,0.00,29.4,27.4,00.0,37.8,31.1,23.1,0000.0,0007.86,0003.79,0002.78
2023-05-29 02:21:00,,0828.4,5.00,0.00,29.5,27.6,00.0,37.8,31.1,24.3,0000.0,0007.61,0003.79,0002.81
2023-05-29 02:22:00,,0828.4,5.00,0.00,29.5,27.8,00.0,37.8,31.2,23.6,0000.0,0007.68,0003.80,0002.83
2023-05-29 02:23:00,,0828.4,5.00,0.00,29.5,27.9,00.0,37.8,31.2,24.1,0000.0,0007.89,0003.84,0002.88
2023-05-29 02:24:00,,0828.4,5.00,0.00,29.5,28.0,00.0,37.8,31.2,24.0,0000.0,0007.95,0003.87,0002.94
2023-05-29 02:25:00,,0828.4,5.00,0.00,29.6,28.1,00.0,37.8,31.3,23.8,0000.0,0007.96,0003.88,0002.99
2023-05-29 02:26:00,,0828.4,5.00,0.00,29.6,28.2,00.0,37.9,31.3,24.7,0000.0,0007.95,0003.91,0003.05
2023-05-29 02:27:00,,0828.5,5.00,0.00,29.6,28.3,00.0,37.9,31.3,25.0,0000.0,0008.72,0004.01,0003.13
2023-05-29 02:28:00,,0828.5,5.01,0.00,29.6,28.3,00.0,37.9,31.3,25.9,0000.0,0009.10,0004.06,0003.22
2023-05-29 02:29:00,,0828.5,5.00,0.00,29.7,28.4,00.0,37.9,31.4,26.3,0000.0,0009.08,0004.12,0003.30
2023-05-29 02:30:00,,0828.5,5.00,0.00,29.7,28.4,00.0,37.9,31.4,25.4,0000.0,0009.10,0004.19,0003.38
2023-05-29 02:31:00,,0828.6,4.99,0.00,29.7,28.4,00.0,37.9,31.4,25.4,0000.0,0009.07,0004.20,0003.42
2023-05-29 02:32:00,,0828.6,4.99,0.00,29.7,28.3,00.0,38.0,31.4,25.6,0000.0,0009.41,0004.28,0003.46
2023-05-29 02:33:00,,0828.6,4.99,0.00,29.7,26.8,00.0,37.9,31.3,25.6,0000.0,0009.54,0004.33,0003.51
2023-05-29 02:34:00,,0828.6,5.00,0.00,29.7,25.5,00.0,37.8,31.1,25.6,0000.0,0009.60,0004.35,0003.54
2023-05-29 02:35:00,,0828.6,5.01,0.00,29.6,25.4,00.0,37.8,30.9,26.1,0000.0,0010.00,0004.39,0003.56
2023-05-29 02:36:00,,0828.6,5.01,0.00,29.5,25.6,00.0,37.8,30.8,26.4,0000.0,0010.61,0004.42,0003.59
2023-05-29 02:37:00,,0828.7,5.00,0.00,29.4,26.0,00.0,37.8,30.8,26.7,0000.0,0010.93,0004.46,0003.61
2023-05-29 02:38:00,,0828.7,5.00,0.00,29.4,26.4,00.0,37.8,30.9,27.3,0000.0,0010.62,0004.44,0003.61
2023-05-29 02:39:00,,0828.7,5.00,0.00,29.4,26.7,00.0,37.8,30.9,26.8,0000.0,0010.47,0004.40,0003.57
2023-05-29 02:40:00,,0828.8,5.00,0.00,29.4,26.9,00.0,37.8,31.0,26.4,0000.0,0010.69,0004.38,0003.51
2023-05-29 02:41:00,,0828.7,4.99,0.00,29.4,27.2,00.0,37.8,31.0,26.1,0000.0,0010.63,0004.31,0003.46
2023-05-29 02:42:00,,0828.8,5.00,0.00,29.4,27.4,00.0,37.8,31.0,25.8,0000.0,0010.66,0004.27,0003.42
2023-05-29 02:43:00,,0828.8,5.00,0.00,29.4,27.5,00.0,37.8,31.0,25.9,0000.0,0010.70,0004.20,0003.38
2023-05-29 02:44:00,,0828.7,5.00,0.00,29.4,27.7,00.0,37.8,31.1,25.9,0000.0,0011.32,0004.14,0003.34
2023-05-29 02:45:00,,0828.8,5.00,0.00,29.4,27.8,00.0,37.8,31.1,25.8,0000.0,0011.73,0004.14,0003.32
2023-05-29 02:46:00,,0828.8,5.00,0.00,29.5,27.9,00.0,37.8,31.1,25.5,0000.0,0011.33,0004.07,0003.29
2023-05-29 02:47:00,,0828.8,5.00,0.00,29.5,28.0,00.0,37.8,31.2,25.0,0000.0,0010.75,0004.06,0003.27
2023-05-29 02:48:00,,0828.8,5.01,0.00,29.5,28.0,00.0,37.8,31.2,25.1,0000.0,0010.52,0004.05,0003.25
2023-05-29 02:49:00,,0828.7,4.99,0.00,29.5,28.1,00.0,37.8,31.2,25.5,0000.0,0010.14,0004.02,0003.22
2023-05-29 02:50:00,,0828.8,4.99,0.00,29.5,28.2,00.0,37.8,31.2,25.8,0000.0,0010.41,0004.04,0003.21
2023-05-29 02:51:00,,0828.7,5.01,0.00,29.6,28.2,00.0,37.8,31.3,25.9,0000.0,0010.08,0004.00,0003.20
2023-05-29 02:52:00,,0828.7,5.00,0.00,29.6,28.2,00.0,37.9,31.3,25.9,0000.0,0010.10,0004.01,0003.20
2023-05-29 02:53:00,,0828.7,4.99,0.00,29.6,28.3,00.0,37.9,31.3,25.8,0000.0,0010.19,0004.05,0003.22
2023-05-29 02:54:00,,0828.8,4.99,0.00,29.6,28.3,00.0,37.9,31.3,25.5,0000.0,0009.85,0004.05,0003.23
2023-05-29 02:55:00,,0828.8,5.00,0.00,29.7,28.3,00.0,37.9,31.4,25.4,0000.0,0009.29,0004.09,0003.24
2023-05-29 02:56:00,,0828.8,5.01,0.00,29.7,28.4,00.0,37.9,31.4,25.2,0000.0,0008.72,0004.10,0003.24
2023-05-29 02:57:00,,0828.8,5.01,0.00,29.7,28.4,00.0,38.0,31.4,25.2,0000.0,0009.01,0004.14,0003.24
2023-05-29 02:58:00,,0828.7,5.00,0.00,29.7,28.4,00.0,38.0,31.4,25.1,0000.0,0008.88,0004.09,0003.24
2023-05-29 02:59:00,,0828.8,4.98,0.00,29.8,28.4,00.0,38.0,31.4,24.8,0000.0,0008.77,0004.05,0003.23
